Showing default

INTELSAT 2-F2, 2639

Orbit data source: Space-Track

INTELSAT 2-F2, 2639 is a payload satellite owned by INTELSAT (US) in GEO that was launched on Wed, 11 Jan 1967 UTC via a THOR DELTA E1 launch vehicle from the Air Force Eastern Test Range (AFETR). Payload-class satellites include a variety of spacecraft equipped with specific instruments for various scientific and technological missions. These include communications satellites like Starlink; space stations such as the ISS; scientific satellites like the Hubble; Earth observation satellites from companies like Planet Labs, Umbra, and HawkEye 360; GPS; miniature CubeSats for education and research; and military/defense satellites.

Not visible in the next 10 days
Identifier
2639, 1967-001A
Orbit
GEO
Last TLE update
8 hours ago
Origin
Manufacturer
Hughes
Mission
Non-operational Civil Communications
Bus & Motor
HS-303, SVM-1
Mass
163 kg wet, ~65 kg dry
Launch date (UTC)
1967-01-11 (58 years ago)
Launch vehicle
THOR DELTA E1
Launch site
Air Force Eastern Test Range (AFETR)
Object type
Payload
Rocket body
Debris
Shape & HBR
Cyl, 1.4 m
Radar Cross Section
2.199 m², Large (>1 m²)

Expand to show TLE details & history

TLE from 8 hours ago
0 INTELSAT 2-F2
1 02639U 67001A   25182.85520422  .00000076  00000-0  00000-0 0  9993
2 02639   2.3523  80.9385 0005377 186.8402 332.4832  1.00207895115735
Epoch: 2025-07-01T20:31Z
TLE epoch observation values (Epoch: 2025-07-01T20:31:29.644Z)
Latitude
0.82103°
Longitude
12.24487°
Altitude
35,783.732 km
Speed
3.076 km/s
True Right ascension
16h 01m 03s
True Declination
0° 49' 13"
Sunlit
Object was in daylight at epoch
Visualization orbit readout
Latitude
-2.26143°
Longitude
139.60692°
Altitude
35,808.142 km
Speed
3.074 km/s
Apparent Right ascension
00h 52m 52s
Apparent Declination
-7° 19' 22"
Sunlit
Object is in daylight
Visualization observer readout
Local Sidereal Time
16:41:01
Azimuth
73.372° E
Elevation
-29.716°
Doppler factor
1
Orbital elements
Apogee altitude
35,828.265 km
Perigee altitude
35,782.9 km
Semi-major axis
42,183.719 km
Eccentricity
0.00054
Inclination
2.3523°
RAAN
80.9385°
Arg. of periapsis
186.8402°
True anomaly
Unknown
Mean anomaly
332.4832°
Eccentric anomaly
Unknown
Mean motion
0.25051 °/min
Orbital period
1,437.07 mins
BSTAR
0
Loading historical data...
2639 neighbors
Loading maneuver chart data...
Loading SW <> Apogee altitude chart data...

INTELSAT 2-F2 Visibility

Observer location: undefined°, undefined°

INTELSAT 2-F2 is likely not visible in the next few days
Span
Click to sort rows by Start time (UTC) header in descending order
Start Az.
Max El. time (UTC)
Max El. Az.
Max El.
End time (UTC)
End Az.
|